Hourly Weather Roundup
Issued by NWS Central Illinois

Home | Current Version | Previous Version | Text Only | Print | Product List | Glossary On
Versions: 1 2 3 4 5 6 7 8 9 10 11 12 13 14 15 16 17 18 19 20 21 22 23 24 25 26 27 28 29 30 31 32 33 34 35 36 37 38 39 40 41 42 43 44 45 46 47 48 49 50
000
NZUS43 KILX 240510
HWRILX

AREA WEATHER ROUNDUP
NATIONAL WEATHER SERVICE, LINCOLN IL
1200 AM CDT FRI MAR 24 2017


CITY           SKY/WX    TMP DP  RH WIND       PRES   REMARKS
BLOOMINGTON    PTCLDY    44  37  76 S20       29.99S
CHAMPAIGN      CLEAR     48  36  63 S18       30.02F
DECATUR        CLEAR     48  39  71 S18G26    30.02F
EFFINGHAM      CLEAR     49  42  78 SE12G18   30.08F
FLORA          CLEAR     46  41  85 S9        30.08F
GALESBURG      CLOUDY    47  41  79 SE16      29.90S
JACKSONVILLE   CLOUDY    52  43  71 S13G21    29.96R
LACON          CLOUDY    48  38  69 S12G20    29.95F
LAWRENCEVILLE  CLEAR     49  41  74 S9        30.10F
LITCHFIELD     CLEAR     49  42  78 SE16      30.00F
$$


CITY           SKY/WX    TMP DP  RH WIND       PRES   REMARKS
LINCOLN        CLOUDY    47  42  82 S10G16    29.99F
MACOMB         MOCLDY    46  42  86 S10       29.95S
MATTOON        CLEAR     49  41  74 S15G22    30.04F
MT CARMEL AP   CLEAR     54  41  62 S17       30.09F
OLNEY-NOBLE AP CLEAR     50  45  81 SE15      30.08F
PARIS          CLOUDY    51  40  64 S17       30.07F
PEORIA         CLOUDY    47  40  76 S17G26    29.97R
PONTIAC        PTCLDY    47  38  70 S16       29.99S
RANTOUL        CLOUDY    48  39  70 S17       30.01F
SPRINGFIELD    CLOUDY    49  42  77 S18G25    29.99S
TAYLORVILLE    CLEAR     46  41  81 S13       30.01F
$$

...REGIONAL REPORTS...


CITY           SKY/WX    TMP DP  RH WIND       PRES   REMARKS
CHICAGO O`HARE CLOUDY    47  33  58 S7        30.02S
KANKAKEE       CLOUDY    47  34  60 S12G18    30.02R
MOLINE         PTCLDY    45  38  76 SE8       29.90F
MOUNT STERLING PTCLDY    50  43  76 S8        29.92S
MOUNT VERNON   CLEAR     50  43  77 SE5       30.08
PITTSFIELD     CLOUDY    60  47  62 S13       29.93S
QUINCY         CLOUDY    59  45  59 S13       29.90S
ROCKFORD       CLOUDY    44  33  65 SE10      29.98F
$$


CITY           SKY/WX    TMP DP  RH WIND       PRES   REMARKS
BURLINGTON     CLOUDY    51  43  74 S14       29.87F
CEDAR RAPIDS   MOCLDY    42  40  92 SE10      29.83F
DES MOINES     CLOUDY    55  40  56 SE13      29.76F
KIRKSVILLE     CLOUDY    49  32  52 S6        29.86S
OTTUMWA        PTCLDY    54  42  64 S15       29.81F
ST LOUIS       CLEAR     59  44  57 SE12      29.99F
$$


CITY           SKY/WX    TMP DP  RH WIND       PRES   REMARKS
TERRE HAUTE    CLEAR     53  38  56 S12G22    30.09F
EVANSVILLE     CLEAR     52  42  69 SE7       30.13F
INDIANAPOLIS   CLOUDY    50  32  50 SE10      30.11F
LAFAYETTE      CLEAR     50  34  54 S14G21    30.04F
MADISON        CLOUDY    43  33  68 S15G23    29.89F
MILWAUKEE      MOCLDY    44  33  65 S16G23    29.93F
$$





USA.gov is the U.S. government's official web portal to all federal, state and local government web resources and services.